Weather History for Alexandria Esle, LA

Change the Weather History Date:

Sunday, February 17, 2013

  Actual Average Record
Temperature  
Mean Temperature 47 °F -  
Max Temperature 66 °F 60 °F 82 °F (2000)
Min Temperature 28 °F 40 °F 26 °F (1970)
Degree Days  
Heating Degree Days 18    
Moisture  
Dew Point 34 °F    
Average Humidity 63    
Maximum Humidity 89    
Minimum Humidity 36    
Precipitation  
Precipitation 0.00 in - - ()
Sea Level Pressure  
Sea Level Pressure 30.23 in    
Wind  
Wind Speed 3 mph (South)    
Max Wind Speed 13 mph    
Max Gust Speed 22 mph    
Visibility 10 miles    
Events      
Averages and records for this station are not official NWS values.
T = Trace of Precipitation, MM = Missing Value Source: NWS Daily Summary

Daily Weather History Graph

Daily Weather History Graph

Search for Another Location

Airport:

Trip Planner

Search our weather history database for the weather conditions in past years. The results will help you decide how hot, cold, wet, or windy it might be!

Date:

Astronomy

Feb. 17, 2013 Rise Set
Actual Time 6:48 AM CST 5:58 PM CST
Civil Twilight 6:23 AM CST 6:22 PM CST
Nautical Twilight 5:55 AM CST 6:51 PM CST
Astronomical Twilight 5:27 AM CST 7:19 PM CST
Moon 11:11 AM CST (2/17) 12:25 AM CST (2/17)
Length of Visible Light 11h 59m
Length of Day
11h 09m
Waxing Crescent, 49% of the Moon is Illuminated
Feb 17
Waxing Crescent
Feb 17
First Quarter
Feb 25
Full
Mar 4
Last Quarter
Mar 11
New

Hourly Weather History & Observations

Time (CST) Temp. Windchill Dew Point Humidity Pressure Visibility Wind Dir Wind Speed Gust Speed Precip Events Conditions
12:53 AM 30.9 °F - 28.0 °F 89% 30.29 in 10.0 mi Calm Calm - N/A   Clear
1:53 AM 30.0 °F - 27.0 °F 88% 30.27 in 10.0 mi Calm Calm - N/A   Clear
2:53 AM 30.0 °F - 27.0 °F 88% 30.27 in 10.0 mi Calm Calm - N/A   Clear
3:53 AM 30.0 °F - 27.0 °F 88% 30.27 in 10.0 mi Calm Calm - N/A   Clear
4:53 AM 28.9 °F - 26.1 °F 89% 30.27 in 10.0 mi Calm Calm - N/A   Clear
5:53 AM 28.9 °F - 26.1 °F 89% 30.28 in 10.0 mi Calm Calm - N/A   Clear
6:53 AM 28.9 °F - 26.1 °F 89% 30.29 in 10.0 mi Calm Calm - N/A   Clear
7:53 AM 36.0 °F - 30.0 °F 79% 30.30 in 10.0 mi Calm Calm - N/A   Clear
8:53 AM 43.0 °F 40.3 °F 30.0 °F 60% 30.31 in 10.0 mi South 4.6 mph - N/A   Clear
9:53 AM 50.0 °F - 28.0 °F 43% 30.30 in 10.0 mi South 10.4 mph - N/A   Clear
10:53 AM 55.9 °F - 28.9 °F 36% 30.29 in 10.0 mi South 10.4 mph - N/A   Clear
11:53 AM 57.9 °F - 33.1 °F 39% 30.26 in 10.0 mi SSE 9.2 mph - N/A   Clear
12:53 PM 63.0 °F - 37.0 °F 38% 30.22 in 10.0 mi South 9.2 mph - N/A   Clear
1:53 PM 64.9 °F - 39.0 °F 39% 30.19 in 10.0 mi South 9.2 mph - N/A   Clear
2:53 PM 66.0 °F - 39.0 °F 37% 30.16 in 10.0 mi South 9.2 mph 16.1 mph N/A   Clear
3:53 PM 66.0 °F - 41.0 °F 40% 30.14 in 10.0 mi South 12.7 mph - N/A   Clear
4:53 PM 64.0 °F - 43.0 °F 46% 30.14 in 10.0 mi South 9.2 mph 21.9 mph N/A   Mostly Cloudy
5:53 PM 62.1 °F - 43.0 °F 50% 30.14 in 10.0 mi South 9.2 mph 16.1 mph N/A   Clear
6:53 PM 59.0 °F - 42.8 °F 55% 30.15 in 10.0 mi South 6.9 mph - N/A   Clear
7:53 PM 57.0 °F - 43.0 °F 59% 30.16 in 10.0 mi South 5.8 mph - N/A   Clear
8:53 PM 55.0 °F - 43.0 °F 64% 30.17 in 10.0 mi South 8.1 mph - N/A   Clear
9:53 PM 53.1 °F - 42.1 °F 66% 30.17 in 10.0 mi South 5.8 mph - N/A   Clear
11:53 PM 50.0 °F - 39.9 °F 68% 30.17 in 10.0 mi SSE 4.6 mph - N/A   Clear